Wind_Speed
18 19 18 18 17 16 16 15 12 11 11 10 8 9 7 5 4 3 2 2 2 2 3 3 3 4 5 5 5 5 5 5 6 6 7 8 8 8 8 8 9 9 9
17 18 19 18 18 17 16 15 13 12 11 10 9 8 7 5 4 4 3 2 2 3 3 4 3 4 5 5 6 6 6 7 7 8 8 9 9 10 9 10 10 10 11
16 17 18 18 18 17 16 15 13 12 11 10 9 8 7 6 5 5 4 4 3 3 3 4 4 5 5 6 6 7 7 8 8 9 9 9 10 10 11 11 11 12 12
16 16 17 17 17 16 15 14 13 12 11 10 9 8 7 6 6 5 5 5 4 4 4 4 5 6 6 6 6 7 8 8 9 9 9 10 10 11 11 12 12 13 13
15 15 16 16 16 15 15 14 13 12 12 11 9 8 8 7 6 6 6 6 5 5 5 5 6 6 7 7 7 8 9 9 10 10 10 10 11 12 12 12 13 13 14
14 14 15 15 15 15 14 14 13 12 11 11 10 9 8 7 7 7 7 7 6 6 6 6 7 7 8 8 8 9 9 10 10 11 11 12 12 13 14 14 14 14 15
12 13 13 14 14 14 14 14 13 12 12 11 10 9 9 7 7 8 7 7 7 6 6 7 7 8 8 9 9 10 11 11 11 12 12 13 13 14 14 14 14 14 15
12 12 13 13 14 14 13 13 13 13 12 11 10 10 9 8 8 8 8 8 8 8 8 9 8 8 9 10 10 11 11 12 12 13 13 13 14 14 14 14 14 14 15
12 11 12 12 13 13 13 13 13 13 13 11 11 10 10 9 9 9 9 9 9 9 10 10 9 10 10 10 10 10 11 12 13 13 13 13 14 15 15 15 15 15 15
12 11 11 12 12 12 12 13 13 13 13 12 11 11 10 10 10 10 10 10 10 10 11 11 10 10 10 10 10 10 11 12 13 13 14 14 15 15 15 15 15 15 16
12 12 12 12 12 12 12 12 12 12 13 13 12 11 11 11 11 11 10 11 11 11 11 11 12 12 12 11 11 11 11 12 13 13 13 13 14 15 15 15 15 15 15
13 14 13 13 12 12 12 12 12 12 12 13 13 12 12 12 12 11 11 12 12 12 12 12 13 13 13 12 12 13 13 13 13 13 13 14 14 15 14 15 15 15 16
16 16 14 12 13 12 12 12 13 13 13 13 13 13 13 13 12 12 12 13 13 13 13 13 13 13 13 13 13 14 14 14 14 15 15 15 15 15 15 16 16 17 17
17 18 15 14 14 13 14 13 13 14 15 14 15 15 15 14 14 14 14 14 14 14 15 15 15 15 15 14 14 15 15 15 16 16 16 16 16 16 16 17 18 18 19
19 19 16 16 15 15 15 15 16 16 16 16 16 16 16 16 16 15 16 16 16 16 16 16 17 16 16 16 16 16 16 17 17 17 17 17 17 17 18 19 19 20 20
21 19 18 18 17 17 17 16 17 17 17 18 17 17 17 18 18 17 17 18 18 18 17 18 18 18 17 17 17 17 18 18 18 18 19 19 19 19 19 20 21 21 22
22 21 20 19 18 18 18 18 18 18 18 18 19 19 18 19 19 19 19 19 19 19 19 19 19 19 18 18 19 19 19 20 20 20 20 20 20 20 21 21 22 22 23
24 23 23 22 22 21 21 21 21 20 21 21 21 21 21 21 21 21 21 21 21 20 20 20 21 21 20 20 20 20 21 21 21 21 22 22 22 22 22 23 23 24 24
27 26 25 25 24 24 23 23 23 23 23 23 24 23 23 23 23 23 23 23 23 23 22 22 22 23 23 23 23 23 24 24 24 24 23 23 24 24 24 25 25 25 25
28 28 27 27 27 27 27 26 26 27 26 26 27 27 26 25 25 25 25 24 24 24 24 24 24 24 24 25 25 26 26 26 26 26 26 25 26 26 27 27 26 26 26
29 29 29 29 29 29 30 30 29 29 29 30 30 29 28 27 27 26 25 25 26 26 27 27 26 26 26 27 27 28 28 28 27 27 27 27 27 28 28 28 28 28 28
31 31 31 31 31 32 32 32 32 32 32 32 32 31 30 29 28 28 28 28 27 28 29 29 29 29 29 29 29 29 29 29 29 29 29 29 29 29 30 30 30 30 30
33 33 33 34 34 34 34 35 35 35 34 34 34 33 32 31 31 30 30 30 31 31 31 30 30 30 29 31 31 30 30 30 31 31 30 30 30 31 32 32 32 32 32
34 34 35 35 35 35 35 35 36 36 36 35 35 34 34 33 33 34 34 33 33 33 33 32 32 31 31 32 32 32 32 32 32 32 32 32 32 33 33 33 33 33 33
36 36 36 37 37 36 37 37 37 37 37 37 37 37 36 36 36 36 36 35 35 35 35 35 34 35 34 34 33 33 34 35 35 35 34 34 34 34 34 34 34 34 34
38 38 38 39 38 38 38 39 39 39 38 38 38 38 38 38 38 38 36 36 37 37 37 36 37 37 37 37 37 37 37 36 36 35 35 35 35 35 35 35 35 34 34
Wind_Direction
11 12 11 10 9 9 9 10 9 8 6 6 6 8 9 8 358 342 323 291 275 278 270 269 264 257 258 263 269 265 267 272 276 273 268 268 268 268 279 279 278 283 286
7 8 7 7 7 7 5 8 9 8 6 7 7 8 9 13 12 351 341 330 298 282 281 283 281 270 265 264 268 268 271 277 279 279 277 278 277 277 277 281 280 283 286
1 1 2 3 4 4 3 5 7 9 9 9 7 359 356 0 356 345 338 333 310 296 289 285 287 285 278 272 272 274 277 282 284 283 282 282 280 283 285 282 283 285 286
355 356 356 358 359 1 1 4 6 8 7 4 1 357 352 346 348 347 339 339 334 315 308 297 294 296 292 290 286 283 285 289 290 284 283 284 283 283 287 287 287 288 287
348 352 352 354 355 357 359 1 3 4 4 3 359 357 352 344 345 346 343 342 337 323 314 307 299 294 291 291 291 289 288 290 293 291 285 282 284 284 286 289 290 291 289
340 345 348 351 352 355 357 358 0 2 3 3 358 353 351 349 349 345 341 338 333 328 320 307 299 296 294 294 291 290 291 293 293 292 289 286 286 286 287 289 289 291 291
332 339 344 348 349 351 355 357 358 358 359 359 357 353 352 350 349 351 347 341 338 333 328 321 308 300 299 295 293 292 293 294 294 293 291 288 288 290 291 290 289 290 291
324 334 340 344 346 347 351 354 355 355 356 357 358 354 350 350 350 350 347 343 341 337 332 325 316 308 301 298 297 295 293 293 293 294 294 291 291 291 290 290 291 292 293
313 324 333 339 342 344 347 350 351 353 355 356 356 356 353 352 351 348 342 339 340 336 333 330 320 316 308 300 296 297 296 295 296 296 296 295 291 292 294 291 289 289 289
304 313 323 330 334 338 341 344 347 350 352 354 356 354 351 349 347 343 338 337 336 333 333 331 329 321 318 313 306 303 303 301 300 297 295 295 295 294 293 294 292 290 290
298 304 313 320 326 328 335 340 343 346 348 350 352 350 348 344 341 340 339 339 338 334 330 331 329 325 325 321 316 312 310 308 305 302 299 299 299 298 297 296 297 295 293
293 298 304 312 316 322 328 330 333 336 340 344 346 347 345 342 339 338 335 335 334 333 331 329 325 323 322 320 314 312 312 311 309 306 303 301 299 299 300 298 297 296 298
283 287 292 302 308 313 320 322 324 327 329 334 336 337 337 336 334 334 334 333 331 329 330 329 325 321 319 318 316 316 312 310 308 306 306 305 302 300 298 298 298 297 298
275 279 286 293 298 304 310 313 319 323 326 328 329 329 327 328 326 326 327 328 327 326 326 326 325 323 318 316 316 317 314 309 307 306 304 304 302 299 297 297 298 298 299
270 275 279 287 291 297 304 308 314 318 320 320 319 321 322 322 321 318 320 322 323 322 323 323 323 320 318 314 313 314 312 309 307 305 302 301 301 300 298 297 296 297 298
267 271 275 280 284 289 295 300 306 311 313 314 314 314 315 316 318 316 315 317 319 318 318 320 318 317 315 312 310 310 310 308 306 304 301 300 300 299 299 298 297 297 296
266 268 272 275 278 283 288 292 297 302 307 310 310 312 313 314 314 315 314 315 316 315 316 317 317 316 315 314 312 311 311 311 308 304 300 299 300 299 299 300 299 298 297
264 266 269 271 273 277 282 286 290 294 299 303 305 307 309 309 308 309 310 310 310 310 311 313 315 312 311 311 309 310 311 311 309 306 304 301 300 300 299 299 298 297 297
262 264 266 268 270 274 278 281 285 289 293 298 299 301 303 304 305 305 304 304 306 305 305 306 308 308 307 306 306 306 307 308 306 305 305 303 300 300 299 298 297 297 296
260 262 264 267 269 272 275 278 281 285 289 292 295 296 298 300 301 302 301 301 304 304 302 302 303 304 306 306 305 303 303 303 303 303 302 301 300 299 299 298 297 297 296
259 261 263 265 268 270 273 276 280 282 285 288 290 291 293 295 296 298 300 299 300 301 301 299 299 299 301 303 304 304 302 301 300 299 298 298 298 299 299 299 298 297 297
259 261 262 265 267 269 271 274 277 280 282 286 287 286 287 291 292 293 296 297 299 300 299 297 296 295 296 298 299 302 302 300 300 300 298 297 297 297 297 298 298 297 297
258 259 262 264 265 267 269 271 275 278 281 284 285 284 283 285 287 290 292 295 297 298 298 297 297 295 295 297 297 298 301 301 299 298 297 297 296 297 298 298 297 297 296
260 261 262 264 265 267 269 271 274 276 278 280 281 282 283 283 285 287 289 291 293 295 294 295 295 295 297 297 296 296 298 299 299 299 298 297 296 296 297 298 298 297 297
260 261 262 264 266 267 269 270 272 274 276 277 278 280 281 282 282 283 285 287 290 291 292 292 292 294 295 296 295 295 296 298 299 299 299 299 298 297 297 297 296 296 296
259 261 263 264 265 267 270 271 273 274 274 275 275 278 279 280 281 282 283 285 287 288 288 289 289 291 292 292 293 293 294 295 296 297 297 298 297 297 297 297 296 295 295
Height
5921 5919 5916 5914 5912 5910 5908 5905 5903 5902 5901 5899 5898 5898 5897 5896 5896 5895 5895 5895 5896 5896 5896 5896 5897 5897 5898 5898 5899 5899 5899 5900 5900 5900 5900 5900 5900 5900 5899 5900 5899 5899 5899
5923 5920 5918 5915 5913 5911 5908 5906 5904 5903 5901 5900 5899 5898 5897 5897 5896 5896 5895 5895 5895 5895 5896 5896 5896 5896 5897 5897 5897 5898 5898 5898 5898 5898 5898 5898 5899 5898 5898 5897 5897 5897 5897
5923 5921 5919 5916 5914 5911 5909 5907 5905 5903 5902 5900 5899 5898 5898 5897 5897 5896 5896 5895 5895 5895 5895 5895 5895 5896 5896 5896 5896 5896 5896 5896 5897 5896 5896 5896 5896 5896 5896 5895 5895 5894 5894
5924 5922 5919 5917 5915 5912 5910 5908 5906 5904 5902 5901 5900 5899 5898 5897 5897 5896 5896 5895 5895 5895 5895 5894 5895 5895 5895 5895 5895 5895 5895 5895 5894 5894 5894 5893 5893 5893 5893 5893 5892 5892 5891
5924 5922 5920 5918 5915 5913 5911 5908 5907 5905 5903 5901 5900 5899 5898 5897 5896 5896 5896 5895 5895 5894 5894 5894 5893 5893 5893 5893 5893 5893 5893 5893 5892 5892 5891 5891 5891 5890 5890 5890 5889 5889 5888
5924 5922 5920 5918 5916 5914 5911 5909 5907 5905 5903 5902 5900 5899 5898 5897 5896 5896 5895 5895 5894 5893 5893 5892 5892 5892 5891 5891 5891 5891 5890 5890 5890 5890 5889 5888 5888 5888 5887 5887 5886 5886 5885
5924 5922 5920 5918 5916 5914 5912 5910 5908 5906 5904 5902 5900 5899 5898 5897 5896 5895 5895 5894 5893 5892 5892 5891 5890 5890 5889 5889 5889 5888 5888 5888 5887 5887 5886 5886 5885 5885 5884 5883 5883 5882 5881
5923 5921 5919 5917 5916 5914 5912 5910 5908 5906 5904 5902 5900 5899 5898 5897 5896 5895 5894 5894 5892 5892 5891 5890 5889 5888 5888 5887 5887 5886 5886 5885 5885 5884 5883 5883 5882 5881 5881 5880 5879 5879 5878
5921 5920 5918 5917 5915 5914 5912 5910 5908 5906 5904 5902 5901 5899 5898 5897 5896 5895 5894 5893 5892 5891 5890 5888 5887 5886 5886 5885 5884 5884 5883 5883 5882 5881 5880 5880 5879 5878 5877 5876 5876 5875 5874
5920 5918 5917 5916 5914 5913 5911 5910 5908 5906 5904 5903 5901 5899 5898 5897 5895 5894 5893 5892 5891 5889 5888 5887 5886 5885 5884 5883 5882 5881 5880 5880 5879 5878 5877 5876 5875 5875 5874 5872 5872 5871 5870
5918 5917 5916 5915 5913 5912 5910 5909 5907 5906 5904 5903 5901 5899 5898 5896 5895 5893 5892 5891 5889 5888 5887 5886 5884 5883 5882 5880 5880 5879 5878 5877 5876 5874 5874 5873 5872 5871 5870 5869 5868 5867 5866
5915 5915 5914 5913 5911 5910 5909 5908 5907 5905 5904 5902 5901 5899 5897 5896 5894 5892 5891 5889 5888 5886 5885 5884 5882 5881 5880 5878 5877 5876 5875 5874 5873 5871 5870 5869 5868 5867 5866 5865 5864 5863 5862
5913 5912 5910 5910 5910 5909 5908 5906 5905 5904 5902 5901 5900 5898 5896 5895 5893 5892 5890 5888 5887 5885 5883 5882 5881 5879 5877 5876 5875 5873 5872 5871 5870 5868 5867 5866 5865 5864 5862 5861 5860 5859 5858
5909 5908 5907 5908 5907 5907 5906 5904 5903 5901 5899 5898 5898 5896 5895 5893 5891 5890 5888 5886 5885 5883 5881 5880 5878 5877 5875 5874 5872 5870 5869 5868 5866 5865 5864 5862 5861 5860 5858 5857 5856 5855 5853
5905 5903 5904 5905 5904 5903 5903 5902 5901 5900 5899 5897 5896 5894 5892 5891 5889 5888 5886 5885 5883 5881 5879 5878 5876 5874 5872 5871 5869 5868 5866 5864 5863 5861 5860 5858 5857 5855 5854 5853 5852 5850 5848
5902 5900 5900 5902 5902 5901 5901 5900 5899 5898 5897 5895 5894 5892 5890 5888 5886 5884 5883 5882 5880 5879 5877 5875 5873 5871 5869 5867 5866 5864 5862 5861 5859 5857 5855 5853 5852 5851 5849 5848 5846 5845 5843
5897 5898 5898 5898 5898 5898 5897 5896 5896 5894 5893 5892 5890 5888 5887 5885 5883 5881 5880 5878 5877 5875 5874 5872 5869 5867 5865 5864 5863 5861 5859 5857 5855 5853 5850 5849 5847 5846 5844 5843 5841 5839 5838
5892 5892 5892 5893 5893 5893 5893 5892 5892 5890 5889 5888 5887 5885 5883 5881 5879 5877 5876 5874 5873 5871 5870 5868 5866 5864 5862 5860 5858 5857 5855 5852 5850 5848 5846 5844 5842 5840 5839 5837 5835 5834 5832
5885 5886 5886 5887 5887 5887 5888 5887 5887 5886 5885 5884 5882 5880 5879 5877 5875 5873 5871 5870 5868 5867 5865 5863 5862 5860 5857 5856 5854 5852 5850 5847 5845 5843 5841 5839 5837 5835 5833 5831 5829 5827 5825
5879 5880 5880 5880 5881 5881 5881 5881 5881 5880 5879 5878 5877 5875 5874 5872 5870 5868 5866 5865 5863 5861 5860 5858 5856 5854 5852 5850 5848 5846 5844 5842 5840 5838 5835 5833 5831 5829 5827 5824 5822 5820 5818
5872 5873 5873 5874 5874 5874 5874 5874 5874 5874 5873 5871 5870 5869 5867 5866 5865 5862 5860 5859 5857 5855 5854 5852 5850 5848 5846 5844 5842 5840 5837 5836 5834 5832 5829 5827 5825 5822 5820 5818 5815 5813 5811
5864 5865 5866 5866 5867 5866 5866 5867 5867 5866 5865 5864 5863 5861 5860 5859 5858 5856 5854 5852 5850 5849 5847 5845 5843 5841 5839 5837 5835 5833 5830 5828 5826 5824 5822 5820 5817 5815 5813 5810 5808 5805 5803
5855 5856 5857 5858 5859 5858 5859 5859 5858 5857 5857 5856 5855 5853 5852 5851 5850 5849 5847 5845 5843 5842 5840 5838 5836 5833 5831 5830 5828 5825 5823 5820 5818 5816 5814 5812 5809 5807 5804 5802 5799 5797 5794
5846 5847 5849 5849 5849 5849 5849 5849 5849 5849 5848 5847 5846 5845 5843 5842 5841 5840 5838 5837 5835 5834 5832 5830 5828 5825 5823 5822 5820 5818 5815 5813 5810 5808 5805 5803 5801 5798 5796 5793 5790 5788 5785
5837 5838 5839 5840 5840 5840 5840 5840 5840 5839 5839 5838 5837 5836 5834 5833 5832 5831 5829 5828 5827 5825 5823 5821 5819 5817 5816 5814 5811 5809 5807 5804 5802 5799 5797 5794 5792 5789 5787 5784 5781 5779 5776
5826 5828 5828 5829 5829 5830 5830 5830 5830 5829 5829 5828 5827 5826 5825 5824 5822 5820 5819 5817 5817 5816 5814 5812 5810 5808 5806 5804 5802 5800 5798 5795 5793 5790 5788 5785 5783 5780 5777 5775 5772 5769 5766